Weather in Ust-Dzhilinda

Russia / Republic of Buryatia     53°39′48″N   111°56′37″E
temp.,
°C
wind,
m/s
gust,
m/s
humid.,
%
clouds,
%
prec.,
mm/h
press.,
hPa
HPBL,
m
26 january, wed
wed2623:00−27nnw119656 0.0 103710
02:00−29n119749 0.0 103910
05:00−30nnw119751 0.0 10399
08:00−30n119746 0.0 10419
11:00−22nw018747 0.0 103789
14:00−18sw117839 0.0 1033218
17:00−24s019514 0.0 10369
20:00−28n229837 0.0 104010
27 january, thu
thu2723:00−29n119779 0.0 104110
02:00−30n119726 0.0 10429
05:00−31n119612 0.0 10429
08:00−31n11975 0.0 10439
11:00−23wnw01865 0.0 103989
14:00−18sw11795 0.0 1035211
17:00−24ssw01955 0.0 10389
20:00−28n21985 0.0 104110
28 january, fri
fri2823:00−29nnw11976 0.0 104310
02:00−30nnw11975 0.0 104410
05:00−31nnw11965 0.0 104310
08:00−31nnw11975 0.0 104410
11:00−22wnw11865 0.0 103989
14:00−17wsw12765 0.0 1035240
17:00−23wsw11945 0.0 10379
20:00−27nnw219713 0.0 104011
29 january, sat
sat2923:00−29nnw119616 0.0 104110
02:00−30nnw11955 0.0 104110
05:00−30nnw11955 0.0 104010
08:00−30nnw11955 0.0 104110
11:00−22wnw118230 0.0 103691
14:00−16wsw127320 0.0 1031234
17:00−23wnw01935 0.0 10349
20:00−27nnw22965 0.0 103911
30 january, sun
sun3023:00−29nnw11955 0.0 104011
02:00−30nnw11955 0.0 104110
05:00−31nnw11965 0.0 104110
08:00−31nnw11965 0.0 104210
11:00−22wnw11823 0.0 1037106
14:00−16wnw13722 0.0 1033305
17:00−23nw11912 0.0 10379
20:00−28n22955 0.0 104211